Year,Month,Day,Hour,Minute,Value (Times are PST for temperature in C)
2013,07,15,00,00,10.70
2013,07,15,00,01,10.70
2013,07,15,00,02,10.70
2013,07,15,00,03,10.70
2013,07,15,00,04,10.70
2013,07,15,00,05,10.70
2013,07,15,00,06,10.70
2013,07,15,00,07,10.70
2013,07,15,00,08,10.70
2013,07,15,00,09,10.70
2013,07,15,00,10,10.70
2013,07,15,00,11,10.70
2013,07,15,00,12,10.60
2013,07,15,00,17,10.60
2013,07,15,00,18,10.50
2013,07,15,00,19,10.50
2013,07,15,00,20,10.50
2013,07,15,00,21,10.40
2013,07,15,00,22,10.40
2013,07,15,00,23,10.40
2013,07,15,00,24,10.40
2013,07,15,00,25,10.40
2013,07,15,00,26,10.40
2013,07,15,00,27,10.40
2013,07,15,00,28,10.30
2013,07,15,00,29,10.30
2013,07,15,00,30,10.30
2013,07,15,00,31,10.30
2013,07,15,00,32,10.30
2013,07,15,00,33,10.30
2013,07,15,00,34,10.30
2013,07,15,00,35,10.30
2013,07,15,00,36,10.30
2013,07,15,00,37,10.30
2013,07,15,00,38,10.30
2013,07,15,00,39,10.30
2013,07,15,00,40,10.30
2013,07,15,00,41,10.30
2013,07,15,00,42,10.30
2013,07,15,00,43,10.30
2013,07,15,00,44,10.30
2013,07,15,00,45,10.30
2013,07,15,00,46,10.20
2013,07,15,00,47,10.20
2013,07,15,00,48,10.20
2013,07,15,00,49,10.20
2013,07,15,00,50,10.10
2013,07,15,00,51,10.10
2013,07,15,00,52,10.10
2013,07,15,00,53,10.10
2013,07,15,00,54,10.10
2013,07,15,00,55,10.10
2013,07,15,00,56,10.00
2013,07,15,00,57,10.00
2013,07,15,00,58,9.90
2013,07,15,00,59,9.90
2013,07,15,01,00,9.90
2013,07,15,01,01,9.90
2013,07,15,01,02,9.90
2013,07,15,01,03,9.90
2013,07,15,01,04,9.90
2013,07,15,01,05,9.80
2013,07,15,01,06,9.80
2013,07,15,01,07,9.80
2013,07,15,01,08,9.80
2013,07,15,01,09,9.80
2013,07,15,01,10,9.80
2013,07,15,01,11,9.80
2013,07,15,01,12,9.80
2013,07,15,01,13,9.80
2013,07,15,01,14,9.80
2013,07,15,01,15,9.90
2013,07,15,01,16,9.90
2013,07,15,01,17,9.90
2013,07,15,01,18,9.90
2013,07,15,01,19,10.00
2013,07,15,01,20,10.00
2013,07,15,01,21,10.00
2013,07,15,01,22,10.00
2013,07,15,01,23,10.00
2013,07,15,01,24,10.00
2013,07,15,01,25,10.00
2013,07,15,01,26,10.00
2013,07,15,01,27,10.00
2013,07,15,01,28,10.00
2013,07,15,01,29,10.00
2013,07,15,01,30,10.00
2013,07,15,01,31,10.00
2013,07,15,01,32,9.90
2013,07,15,01,33,9.90
2013,07,15,01,34,9.90
2013,07,15,01,35,9.90
2013,07,15,01,36,9.90
2013,07,15,01,37,9.80
2013,07,15,01,38,9.80
2013,07,15,01,39,9.80
2013,07,15,01,40,9.80
2013,07,15,01,41,9.80
2013,07,15,01,42,9.80
2013,07,15,01,43,9.80
2013,07,15,01,44,9.80
2013,07,15,01,45,9.80
2013,07,15,01,46,9.80
2013,07,15,01,47,9.80
2013,07,15,01,48,9.90
2013,07,15,01,49,9.90
2013,07,15,01,50,9.90
2013,07,15,01,51,9.90
2013,07,15,01,52,9.90
2013,07,15,01,53,9.90
2013,07,15,01,54,9.90
2013,07,15,01,55,9.90
2013,07,15,01,56,9.90
2013,07,15,01,57,9.90
2013,07,15,01,58,9.90
2013,07,15,01,59,9.90
2013,07,15,02,00,9.90
2013,07,15,02,01,9.90
2013,07,15,02,02,9.90
2013,07,15,02,03,9.90
2013,07,15,02,04,9.90
2013,07,15,02,05,9.90
2013,07,15,02,06,9.90
2013,07,15,02,07,9.90
2013,07,15,02,08,9.90
2013,07,15,02,09,9.90
2013,07,15,02,10,9.80
2013,07,15,02,11,9.80
2013,07,15,02,12,9.80
2013,07,15,02,13,9.80
2013,07,15,02,14,9.80
2013,07,15,02,15,9.80
2013,07,15,02,16,9.80
2013,07,15,02,17,9.80
2013,07,15,02,18,9.80
2013,07,15,02,19,9.70
2013,07,15,02,20,9.70
2013,07,15,02,21,9.70
2013,07,15,02,22,9.70
2013,07,15,02,23,9.70
2013,07,15,02,24,9.70
2013,07,15,02,25,9.70
2013,07,15,02,26,9.70
2013,07,15,02,27,9.60
2013,07,15,02,28,9.60
2013,07,15,02,29,9.50
2013,07,15,02,30,9.50
2013,07,15,02,31,9.50
2013,07,15,02,32,9.40
2013,07,15,02,33,9.40
2013,07,15,02,34,9.40
2013,07,15,02,35,9.30
2013,07,15,02,36,9.30
2013,07,15,02,37,9.30
2013,07,15,02,38,9.30
2013,07,15,02,39,9.30
2013,07,15,02,40,9.20
2013,07,15,02,41,9.20
2013,07,15,02,42,9.20
2013,07,15,02,43,9.10
2013,07,15,02,44,9.10
2013,07,15,02,45,9.10
2013,07,15,02,46,9.10
2013,07,15,02,47,9.10
2013,07,15,02,48,9.10
2013,07,15,02,49,9.00
2013,07,15,02,50,9.00
2013,07,15,02,51,9.00
2013,07,15,02,52,9.00
2013,07,15,02,53,9.00
2013,07,15,02,54,9.00
2013,07,15,02,55,8.90
2013,07,15,02,56,8.90
2013,07,15,02,57,8.90
2013,07,15,02,58,8.90
2013,07,15,02,59,8.90
2013,07,15,03,00,9.00
2013,07,15,03,01,8.90
2013,07,15,03,02,8.90
2013,07,15,03,03,8.90
2013,07,15,03,04,8.90
2013,07,15,03,05,8.90
2013,07,15,03,06,8.90
2013,07,15,03,07,9.00
2013,07,15,03,08,9.00
2013,07,15,03,09,9.00
2013,07,15,03,10,9.00
2013,07,15,03,11,9.00
2013,07,15,03,12,9.00
2013,07,15,03,13,9.00
2013,07,15,03,14,9.00
2013,07,15,03,15,9.00
2013,07,15,03,16,8.90
2013,07,15,03,17,8.90
2013,07,15,03,18,8.90
2013,07,15,03,19,8.90
2013,07,15,03,20,8.90
2013,07,15,03,21,8.90
2013,07,15,03,22,8.90
2013,07,15,03,23,8.90
2013,07,15,03,24,8.90
2013,07,15,03,25,8.90
2013,07,15,03,26,8.90
2013,07,15,03,27,8.90
2013,07,15,03,28,8.90
2013,07,15,03,29,8.90
2013,07,15,03,30,8.90
2013,07,15,03,31,9.00
2013,07,15,03,32,9.00
2013,07,15,03,33,9.00
2013,07,15,03,34,9.00
2013,07,15,03,35,9.00
2013,07,15,03,36,9.00
2013,07,15,03,37,9.00
2013,07,15,03,38,9.00
2013,07,15,03,39,9.00
2013,07,15,03,40,9.10
2013,07,15,03,41,9.10
2013,07,15,03,42,9.00
2013,07,15,03,43,9.00
2013,07,15,03,44,9.00
2013,07,15,03,45,9.00
2013,07,15,03,46,9.00
2013,07,15,03,47,8.90
2013,07,15,03,48,8.90
2013,07,15,03,49,8.90
2013,07,15,03,50,8.90
2013,07,15,03,51,8.90
2013,07,15,03,52,8.90
2013,07,15,03,53,8.80
2013,07,15,03,54,8.80
2013,07,15,03,55,8.80
2013,07,15,03,56,8.80
2013,07,15,03,57,8.80
2013,07,15,03,58,8.80
2013,07,15,03,59,8.80
2013,07,15,04,00,8.70
2013,07,15,04,01,8.70
2013,07,15,04,02,8.70
2013,07,15,04,03,8.70
2013,07,15,04,04,8.70
2013,07,15,04,05,8.70
2013,07,15,04,06,8.70
2013,07,15,04,07,8.70
2013,07,15,04,08,8.70
2013,07,15,04,09,8.70
2013,07,15,04,10,8.70
2013,07,15,04,11,8.70
2013,07,15,04,12,8.70
2013,07,15,04,13,8.70
2013,07,15,04,14,8.70
2013,07,15,04,15,8.70
2013,07,15,04,16,8.70
2013,07,15,04,17,8.60
2013,07,15,04,18,8.60
2013,07,15,04,19,8.60
2013,07,15,04,20,8.70
2013,07,15,04,21,8.70
2013,07,15,04,22,8.70
2013,07,15,04,23,8.70
2013,07,15,04,24,8.70
2013,07,15,04,25,8.70
2013,07,15,04,26,8.70
2013,07,15,04,27,8.70
2013,07,15,04,28,8.60
2013,07,15,04,29,8.60
2013,07,15,04,30,8.60
2013,07,15,04,31,8.60
2013,07,15,04,32,8.60
2013,07,15,04,33,8.60
2013,07,15,04,34,8.60
2013,07,15,04,35,8.60
2013,07,15,04,36,8.60
2013,07,15,04,37,8.60
2013,07,15,04,38,8.60
2013,07,15,04,39,8.60
2013,07,15,04,40,8.60
2013,07,15,04,41,8.60
2013,07,15,04,42,8.60
2013,07,15,04,43,8.60
2013,07,15,04,44,8.60
2013,07,15,04,45,8.60
2013,07,15,04,46,8.60
2013,07,15,04,47,8.50
2013,07,15,04,48,8.50
2013,07,15,04,49,8.50
2013,07,15,04,50,8.50
2013,07,15,04,51,8.50
2013,07,15,04,52,8.50
2013,07,15,04,53,8.50
2013,07,15,04,54,8.50
2013,07,15,04,55,8.50
2013,07,15,04,56,8.50
2013,07,15,04,57,8.50
2013,07,15,04,58,8.50
2013,07,15,04,59,8.50
2013,07,15,05,00,8.60
2013,07,15,05,01,8.60
2013,07,15,05,02,8.60
2013,07,15,05,03,8.60
2013,07,15,05,04,8.60
2013,07,15,05,05,8.60
2013,07,15,05,06,8.70
2013,07,15,05,07,8.60
2013,07,15,05,08,8.60
2013,07,15,05,09,8.60
2013,07,15,05,10,8.60
2013,07,15,05,11,8.60
2013,07,15,05,12,8.60
2013,07,15,05,13,8.60
2013,07,15,05,14,8.60
2013,07,15,05,15,8.70
2013,07,15,05,16,8.70
2013,07,15,05,17,8.70
2013,07,15,05,18,8.80
2013,07,15,05,19,8.80
2013,07,15,05,20,8.80
2013,07,15,05,21,8.80
2013,07,15,05,22,8.90
2013,07,15,05,23,8.90
2013,07,15,05,24,8.90
2013,07,15,05,25,8.90
2013,07,15,05,26,8.90
2013,07,15,05,27,8.90
2013,07,15,05,28,8.90
2013,07,15,05,29,8.90
2013,07,15,05,30,8.90
2013,07,15,05,31,8.90
2013,07,15,05,32,8.90
2013,07,15,05,33,8.90
2013,07,15,05,34,8.90
2013,07,15,05,35,8.90
2013,07,15,05,36,8.90
2013,07,15,05,37,8.90
2013,07,15,05,38,8.90
2013,07,15,05,39,8.90
2013,07,15,05,40,8.90
2013,07,15,05,41,8.90
2013,07,15,05,42,8.80
2013,07,15,05,43,8.80
2013,07,15,05,44,8.80
2013,07,15,05,45,8.80
2013,07,15,05,46,8.80
2013,07,15,05,47,8.80
2013,07,15,05,48,8.80
2013,07,15,05,49,8.80
2013,07,15,05,50,8.80
2013,07,15,05,51,8.80
2013,07,15,05,52,8.70
2013,07,15,05,53,8.70
2013,07,15,05,54,8.70
2013,07,15,05,55,8.70
2013,07,15,05,56,8.80
2013,07,15,05,57,8.80
2013,07,15,05,58,8.80
2013,07,15,05,59,8.80
2013,07,15,06,00,8.80
2013,07,15,06,01,8.80
2013,07,15,06,02,8.80
2013,07,15,06,03,8.80
2013,07,15,06,04,8.80
2013,07,15,06,05,8.80
2013,07,15,06,06,8.80
2013,07,15,06,07,8.80
2013,07,15,06,08,8.80
2013,07,15,06,09,8.80
2013,07,15,06,10,8.80
2013,07,15,06,11,8.80
2013,07,15,06,12,8.80
2013,07,15,06,13,8.80
2013,07,15,06,14,8.80
2013,07,15,06,15,8.80
2013,07,15,06,16,8.80
2013,07,15,06,17,8.70
2013,07,15,06,18,8.70
2013,07,15,06,19,8.80
2013,07,15,06,20,8.80
2013,07,15,06,21,8.80
2013,07,15,06,22,8.80
2013,07,15,06,23,8.80
2013,07,15,06,24,8.80
2013,07,15,06,25,8.80
2013,07,15,06,26,8.80
2013,07,15,06,27,8.90
2013,07,15,06,28,8.90
2013,07,15,06,29,8.90
2013,07,15,06,30,8.90
2013,07,15,06,31,8.90
2013,07,15,06,32,8.90
2013,07,15,06,33,8.90
2013,07,15,06,34,8.90
2013,07,15,06,35,8.90
2013,07,15,06,36,8.90
2013,07,15,06,37,8.90
2013,07,15,06,38,8.90
2013,07,15,06,39,9.00
2013,07,15,06,40,9.10
2013,07,15,06,41,9.10
2013,07,15,06,42,9.20
2013,07,15,06,43,9.20
2013,07,15,06,44,9.30
2013,07,15,06,45,9.30
2013,07,15,06,46,9.40
2013,07,15,06,47,9.40
2013,07,15,06,48,9.50
2013,07,15,06,49,9.60
2013,07,15,06,50,9.60
2013,07,15,06,51,9.70
2013,07,15,06,52,9.70
2013,07,15,06,53,9.80
2013,07,15,06,54,9.80
2013,07,15,06,55,9.90
2013,07,15,06,56,9.90
2013,07,15,06,57,9.90
2013,07,15,06,58,10.00
2013,07,15,06,59,10.00
2013,07,15,07,00,10.10
2013,07,15,07,01,10.10
2013,07,15,07,02,10.10
2013,07,15,07,03,10.20
2013,07,15,07,04,10.20
2013,07,15,07,05,10.20
2013,07,15,07,06,10.30
2013,07,15,07,07,10.30
2013,07,15,07,08,10.30
2013,07,15,07,09,10.30
2013,07,15,07,10,10.30
2013,07,15,07,11,10.40
2013,07,15,07,12,10.40
2013,07,15,07,13,10.40
2013,07,15,07,14,10.50
2013,07,15,07,15,10.50
2013,07,15,07,16,10.50
2013,07,15,07,17,10.60
2013,07,15,07,18,10.60
2013,07,15,07,19,10.70
2013,07,15,07,20,10.70
2013,07,15,07,21,10.70
2013,07,15,07,22,10.80
2013,07,15,07,23,10.80
2013,07,15,07,24,10.90
2013,07,15,07,25,10.90
2013,07,15,07,26,11.00
2013,07,15,07,27,11.00
2013,07,15,07,28,11.10
2013,07,15,07,29,11.10
2013,07,15,07,30,11.20
2013,07,15,07,31,11.20
2013,07,15,07,32,11.30
2013,07,15,07,33,11.30
2013,07,15,07,34,11.40
2013,07,15,07,35,11.40
2013,07,15,07,36,11.50
2013,07,15,07,37,11.50
2013,07,15,07,38,11.60
2013,07,15,07,39,11.60
2013,07,15,07,40,11.70
2013,07,15,07,41,11.80
2013,07,15,07,42,11.80
2013,07,15,07,43,11.90
2013,07,15,07,44,12.00
2013,07,15,07,45,12.10
2013,07,15,07,46,12.10
2013,07,15,07,47,12.20
2013,07,15,07,48,12.30
2013,07,15,07,49,12.30
2013,07,15,07,50,12.30
2013,07,15,07,51,12.40
2013,07,15,07,52,12.50
2013,07,15,07,53,12.50
2013,07,15,07,54,12.60
2013,07,15,07,55,12.60
2013,07,15,07,56,12.70
2013,07,15,07,57,12.70
2013,07,15,07,58,12.80
2013,07,15,07,59,12.80
2013,07,15,08,00,12.90
2013,07,15,08,01,12.90
2013,07,15,08,02,13.00
2013,07,15,08,03,13.00
2013,07,15,08,04,13.10
2013,07,15,08,05,13.10
2013,07,15,08,06,13.20
2013,07,15,08,07,13.30
2013,07,15,08,08,13.30
2013,07,15,08,09,13.40
2013,07,15,08,10,13.50
2013,07,15,08,11,13.60
2013,07,15,08,12,13.70
2013,07,15,08,13,13.80
2013,07,15,08,14,13.90
2013,07,15,08,15,13.90
2013,07,15,08,16,14.00
2013,07,15,08,17,14.10
2013,07,15,08,18,14.10
2013,07,15,08,19,14.20
2013,07,15,08,20,14.20
2013,07,15,08,21,14.30
2013,07,15,08,22,14.40
2013,07,15,08,23,14.50
2013,07,15,08,24,14.50
2013,07,15,08,25,14.60
2013,07,15,08,26,14.70
2013,07,15,08,27,14.80
2013,07,15,08,28,14.90
2013,07,15,08,29,15.00
2013,07,15,08,30,15.10
2013,07,15,08,31,15.20
2013,07,15,08,32,15.30
2013,07,15,08,33,15.50
2013,07,15,08,34,15.60
2013,07,15,08,35,15.60
2013,07,15,08,36,15.70
2013,07,15,08,37,15.80
2013,07,15,08,38,15.80
2013,07,15,08,39,15.90
2013,07,15,08,40,15.90
2013,07,15,08,41,15.90
2013,07,15,08,42,16.00
2013,07,15,08,43,16.10
2013,07,15,08,44,16.10
2013,07,15,08,45,16.20
2013,07,15,08,46,16.20
2013,07,15,08,47,16.30
2013,07,15,08,48,16.40
2013,07,15,08,49,16.40
2013,07,15,08,50,16.50
2013,07,15,08,51,16.50
2013,07,15,08,52,16.60
2013,07,15,08,53,16.70
2013,07,15,08,54,16.80
2013,07,15,08,55,16.90
2013,07,15,08,56,17.00
2013,07,15,08,57,17.00
2013,07,15,08,58,17.10
2013,07,15,08,59,17.10
2013,07,15,09,00,17.10
2013,07,15,09,01,17.10
2013,07,15,09,02,17.10
2013,07,15,09,03,17.20
2013,07,15,09,04,17.20
2013,07,15,09,05,17.30
2013,07,15,09,06,17.40
2013,07,15,09,07,17.50
2013,07,15,09,08,17.50
2013,07,15,09,09,17.60
2013,07,15,09,10,17.60
2013,07,15,09,11,17.60
2013,07,15,09,12,17.70
2013,07,15,09,13,17.70
2013,07,15,09,14,17.70
2013,07,15,09,15,17.70
2013,07,15,09,16,17.80
2013,07,15,09,17,17.80
2013,07,15,09,18,17.80
2013,07,15,09,19,17.80
2013,07,15,09,20,17.70
2013,07,15,09,21,17.70
2013,07,15,09,22,17.60
2013,07,15,09,23,17.50
2013,07,15,09,24,17.40
2013,07,15,09,25,17.20
2013,07,15,09,26,17.10
2013,07,15,09,27,17.00
2013,07,15,09,28,16.90
2013,07,15,09,29,16.90
2013,07,15,09,30,16.80
2013,07,15,09,31,16.70
2013,07,15,09,32,16.70
2013,07,15,09,33,16.70
2013,07,15,09,34,16.70
2013,07,15,09,35,16.70
2013,07,15,09,36,16.80
2013,07,15,09,37,16.90
2013,07,15,09,38,17.00
2013,07,15,09,39,17.10
2013,07,15,09,40,17.10
2013,07,15,09,41,17.20
2013,07,15,09,42,17.30
2013,07,15,09,43,17.30
2013,07,15,09,44,17.40
2013,07,15,09,45,17.40
2013,07,15,09,46,17.50
2013,07,15,09,47,17.60
2013,07,15,09,48,17.60
2013,07,15,09,49,17.60
2013,07,15,09,50,17.60
2013,07,15,09,51,17.60
2013,07,15,09,52,17.70
2013,07,15,09,53,17.70
2013,07,15,09,54,17.80
2013,07,15,09,55,17.70
2013,07,15,09,56,17.70
2013,07,15,09,57,17.60
2013,07,15,09,58,17.60
2013,07,15,09,59,17.60
2013,07,15,10,00,17.70
2013,07,15,10,01,17.70
2013,07,15,10,02,17.80
2013,07,15,10,03,17.80
2013,07,15,10,04,17.90
2013,07,15,10,05,17.90
2013,07,15,10,06,17.90
2013,07,15,10,07,17.90
2013,07,15,10,08,17.90
2013,07,15,10,09,17.90
2013,07,15,10,10,17.90
2013,07,15,10,11,17.90
2013,07,15,10,12,17.90
2013,07,15,10,13,17.90
2013,07,15,10,14,17.90
2013,07,15,10,15,17.90
2013,07,15,10,16,17.90
2013,07,15,10,17,17.90
2013,07,15,10,18,18.00
2013,07,15,10,19,18.00
2013,07,15,10,20,18.00
2013,07,15,10,21,18.00
2013,07,15,10,22,18.10
2013,07,15,10,23,18.00
2013,07,15,10,24,18.10
2013,07,15,10,25,18.10
2013,07,15,10,26,18.20
2013,07,15,10,27,18.20
2013,07,15,10,28,18.30
2013,07,15,10,29,18.30
2013,07,15,10,30,18.40
2013,07,15,10,31,18.50
2013,07,15,10,32,18.60
2013,07,15,10,33,18.70
2013,07,15,10,34,18.80
2013,07,15,10,35,18.90
2013,07,15,10,36,19.00
2013,07,15,10,37,19.10
2013,07,15,10,38,19.20
2013,07,15,10,39,19.30
2013,07,15,10,40,19.40
2013,07,15,10,41,19.50
2013,07,15,10,42,19.60
2013,07,15,10,43,19.70
2013,07,15,10,44,19.70
2013,07,15,10,45,19.80
2013,07,15,10,46,19.80
2013,07,15,10,47,19.90
2013,07,15,10,48,19.90
2013,07,15,10,49,19.90
2013,07,15,10,50,19.90
2013,07,15,10,51,19.90
2013,07,15,10,52,19.80
2013,07,15,10,53,19.90
2013,07,15,10,54,19.80
2013,07,15,10,55,19.80
2013,07,15,10,56,19.70
2013,07,15,10,57,19.70
2013,07,15,10,58,19.60
2013,07,15,10,59,19.60
2013,07,15,11,00,19.50
2013,07,15,11,01,19.50
2013,07,15,11,02,19.60
2013,07,15,11,03,19.70
2013,07,15,11,04,19.70
2013,07,15,11,05,19.70
2013,07,15,11,06,19.80
2013,07,15,11,07,19.70
2013,07,15,11,08,19.70
2013,07,15,11,09,19.70
2013,07,15,11,10,19.60
2013,07,15,11,11,19.60
2013,07,15,11,12,19.60
2013,07,15,11,13,19.50
2013,07,15,11,14,19.50
2013,07,15,11,15,19.40
2013,07,15,11,16,19.30
2013,07,15,11,17,19.20
2013,07,15,11,18,19.10
2013,07,15,11,19,19.00
2013,07,15,11,20,19.00
2013,07,15,11,21,18.90
2013,07,15,11,22,18.90
2013,07,15,11,23,18.90
2013,07,15,11,24,19.00
2013,07,15,11,25,19.20
2013,07,15,11,26,19.40
2013,07,15,11,27,19.60
2013,07,15,11,28,19.60
2013,07,15,11,29,19.70
2013,07,15,11,30,19.70
2013,07,15,11,31,19.70
2013,07,15,11,32,19.70
2013,07,15,11,33,19.80
2013,07,15,11,34,19.90
2013,07,15,11,35,20.00
2013,07,15,11,36,20.00
2013,07,15,11,37,20.00
2013,07,15,11,38,20.10
2013,07,15,11,39,20.30
2013,07,15,11,40,20.40
2013,07,15,11,41,20.40
2013,07,15,11,42,20.50
2013,07,15,11,43,20.50
2013,07,15,11,44,20.60
2013,07,15,11,45,20.60
2013,07,15,11,46,20.60
2013,07,15,11,47,20.60
2013,07,15,11,48,20.60
2013,07,15,11,49,20.70
2013,07,15,11,50,20.70
2013,07,15,11,51,20.80
2013,07,15,11,52,20.80
2013,07,15,11,53,20.80
2013,07,15,11,54,20.80
2013,07,15,11,55,20.90
2013,07,15,11,56,20.90
2013,07,15,11,57,21.10
2013,07,15,11,58,21.30
2013,07,15,11,59,21.40
2013,07,15,12,00,21.60
2013,07,15,12,01,21.80
2013,07,15,12,02,22.00
2013,07,15,12,03,22.10
2013,07,15,12,04,22.30
2013,07,15,12,05,22.30
2013,07,15,12,06,22.40
2013,07,15,12,07,22.50
2013,07,15,12,08,22.50
2013,07,15,12,09,22.60
2013,07,15,12,10,22.60
2013,07,15,12,11,22.60
2013,07,15,12,12,22.70
2013,07,15,12,13,22.80
2013,07,15,12,14,22.90
2013,07,15,12,15,22.90
2013,07,15,12,16,22.90
2013,07,15,12,17,23.00
2013,07,15,12,18,23.00
2013,07,15,12,19,23.10
2013,07,15,12,20,23.10
2013,07,15,12,21,23.20
2013,07,15,12,22,23.20
2013,07,15,12,23,23.20
2013,07,15,12,24,23.10
2013,07,15,12,25,23.00
2013,07,15,12,26,22.90
2013,07,15,12,27,23.00
2013,07,15,12,28,23.00
2013,07,15,12,29,23.10
2013,07,15,12,30,23.10
2013,07,15,12,31,23.10
2013,07,15,12,32,23.20
2013,07,15,12,33,23.10
2013,07,15,12,34,23.20
2013,07,15,12,35,23.20
2013,07,15,12,36,23.20
2013,07,15,12,37,23.10
2013,07,15,12,38,22.90
2013,07,15,12,39,22.90
2013,07,15,12,40,22.90
2013,07,15,12,41,22.90
2013,07,15,12,42,22.90
2013,07,15,12,43,22.80
2013,07,15,12,44,22.80
2013,07,15,12,45,22.80
2013,07,15,12,46,22.80
2013,07,15,12,47,22.70
2013,07,15,12,48,22.60
2013,07,15,12,49,22.50
2013,07,15,12,50,22.30
2013,07,15,12,51,22.20
2013,07,15,12,52,22.00
2013,07,15,12,53,21.90
2013,07,15,12,54,21.80
2013,07,15,12,55,21.70
2013,07,15,12,56,21.60
2013,07,15,12,57,21.40
2013,07,15,12,58,21.30
2013,07,15,12,59,21.30
2013,07,15,13,00,21.20
2013,07,15,13,01,21.10
2013,07,15,13,02,21.00
2013,07,15,13,03,20.80
2013,07,15,13,04,20.70
2013,07,15,13,05,20.50
2013,07,15,13,06,20.50
2013,07,15,13,07,20.40
2013,07,15,13,08,20.50
2013,07,15,13,09,20.50
2013,07,15,13,10,20.60
2013,07,15,13,11,20.70
2013,07,15,13,12,20.80
2013,07,15,13,13,20.90
2013,07,15,13,14,21.00
2013,07,15,13,15,21.10
2013,07,15,13,16,21.30
2013,07,15,13,17,21.40
2013,07,15,13,18,21.70
2013,07,15,13,19,21.90
2013,07,15,13,20,22.10
2013,07,15,13,21,22.20
2013,07,15,13,22,22.40
2013,07,15,13,23,22.60
2013,07,15,13,24,22.60
2013,07,15,13,25,22.60
2013,07,15,13,26,22.60
2013,07,15,13,27,22.60
2013,07,15,13,28,22.70
2013,07,15,13,29,22.70
2013,07,15,13,30,22.80
2013,07,15,13,31,22.80
2013,07,15,13,32,22.80
2013,07,15,13,33,22.90
2013,07,15,13,34,22.90
2013,07,15,13,35,23.00
2013,07,15,13,36,23.00
2013,07,15,13,37,23.00
2013,07,15,13,38,22.80
2013,07,15,13,39,22.70
2013,07,15,13,40,22.60
2013,07,15,13,41,22.60
2013,07,15,13,42,22.60
2013,07,15,13,43,22.70
2013,07,15,13,44,22.60
2013,07,15,13,45,22.60
2013,07,15,13,46,22.50
2013,07,15,13,47,22.50
2013,07,15,13,48,22.50
2013,07,15,13,49,22.60
2013,07,15,13,50,22.60
2013,07,15,13,51,22.60
2013,07,15,13,52,22.60
2013,07,15,13,53,22.50
2013,07,15,13,54,22.50
2013,07,15,13,55,22.40
2013,07,15,13,56,22.30
2013,07,15,13,57,22.30
2013,07,15,13,58,22.20
2013,07,15,13,59,22.10
2013,07,15,14,00,22.00
2013,07,15,14,01,21.90
2013,07,15,14,02,21.80
2013,07,15,14,03,21.90
2013,07,15,14,04,21.90
2013,07,15,14,05,22.00
2013,07,15,14,06,22.10
2013,07,15,14,07,22.10
2013,07,15,14,08,22.20
2013,07,15,14,09,22.20
2013,07,15,14,10,22.30
2013,07,15,14,11,22.30
2013,07,15,14,12,22.40
2013,07,15,14,13,22.40
2013,07,15,14,14,22.50
2013,07,15,14,15,22.50
2013,07,15,14,16,22.50
2013,07,15,14,17,22.50
2013,07,15,14,18,22.50
2013,07,15,14,19,22.50
2013,07,15,14,20,22.40
2013,07,15,14,21,22.40
2013,07,15,14,22,22.20
2013,07,15,14,23,22.10
2013,07,15,14,24,22.00
2013,07,15,14,25,21.90
2013,07,15,14,26,21.90
2013,07,15,14,27,22.00
2013,07,15,14,28,22.20
2013,07,15,14,29,22.40
2013,07,15,14,30,22.60
2013,07,15,14,31,22.80
2013,07,15,14,32,23.00
2013,07,15,14,33,23.10
2013,07,15,14,34,23.30
2013,07,15,14,35,23.40
2013,07,15,14,36,23.40
2013,07,15,14,37,23.50
2013,07,15,14,38,23.50
2013,07,15,14,39,23.50
2013,07,15,14,40,23.60
2013,07,15,14,41,23.70
2013,07,15,14,42,23.80
2013,07,15,14,43,23.80
2013,07,15,14,44,23.80
2013,07,15,14,45,23.70
2013,07,15,14,46,23.60
2013,07,15,14,47,23.40
2013,07,15,14,48,23.30
2013,07,15,14,49,23.20
2013,07,15,14,50,23.10
2013,07,15,14,51,23.00
2013,07,15,14,52,22.90
2013,07,15,14,53,22.80
2013,07,15,14,54,22.80
2013,07,15,14,55,22.80
2013,07,15,14,56,22.80
2013,07,15,14,57,22.70
2013,07,15,14,58,22.70
2013,07,15,14,59,22.70
2013,07,15,15,00,22.80
2013,07,15,15,01,22.80
2013,07,15,15,02,22.90
2013,07,15,15,03,23.00
2013,07,15,15,04,23.10
2013,07,15,15,05,23.20
2013,07,15,15,06,23.30
2013,07,15,15,07,23.40
2013,07,15,15,08,23.50
2013,07,15,15,09,23.60
2013,07,15,15,10,23.80
2013,07,15,15,11,23.80
2013,07,15,15,12,23.80
2013,07,15,15,13,23.80
2013,07,15,15,14,23.90
2013,07,15,15,15,23.90
2013,07,15,15,16,23.90
2013,07,15,15,17,23.90
2013,07,15,15,18,23.90
2013,07,15,15,19,23.90
2013,07,15,15,20,23.90
2013,07,15,15,21,23.90
2013,07,15,15,22,24.00
2013,07,15,15,23,24.00
2013,07,15,15,24,24.00
2013,07,15,15,25,24.00
2013,07,15,15,26,23.90
2013,07,15,15,27,23.80
2013,07,15,15,28,23.60
2013,07,15,15,29,23.40
2013,07,15,15,30,23.30
2013,07,15,15,31,23.10
2013,07,15,15,32,22.90
2013,07,15,15,33,22.90
2013,07,15,15,34,22.90
2013,07,15,15,35,23.00
2013,07,15,15,36,23.10
2013,07,15,15,37,23.30
2013,07,15,15,38,23.40
2013,07,15,15,39,23.60
2013,07,15,15,40,23.70
2013,07,15,15,41,23.70
2013,07,15,15,42,23.70
2013,07,15,15,43,23.70
2013,07,15,15,44,23.70
2013,07,15,15,45,23.70
2013,07,15,15,46,23.60
2013,07,15,15,47,23.50
2013,07,15,15,48,23.50
2013,07,15,15,49,23.50
2013,07,15,15,50,23.60
2013,07,15,15,51,23.60
2013,07,15,15,52,23.60
2013,07,15,15,53,23.60
2013,07,15,15,54,23.70
2013,07,15,15,55,23.70
2013,07,15,15,56,23.70
2013,07,15,15,57,23.80
2013,07,15,15,58,23.90
2013,07,15,15,59,24.00
2013,07,15,16,00,24.10
2013,07,15,16,01,24.10
2013,07,15,16,02,24.10
2013,07,15,16,03,24.10
2013,07,15,16,04,24.20
2013,07,15,16,05,24.20
2013,07,15,16,06,24.10
2013,07,15,16,07,24.00
2013,07,15,16,08,24.00
2013,07,15,16,09,23.90
2013,07,15,16,10,23.80
2013,07,15,16,11,23.80
2013,07,15,16,12,23.80
2013,07,15,16,13,23.80
2013,07,15,16,14,23.80
2013,07,15,16,15,23.80
2013,07,15,16,16,23.90
2013,07,15,16,17,23.90
2013,07,15,16,18,23.90
2013,07,15,16,19,23.80
2013,07,15,16,20,23.70
2013,07,15,16,21,23.70
2013,07,15,16,22,23.60
2013,07,15,16,23,23.60
2013,07,15,16,24,23.60
2013,07,15,16,25,23.60
2013,07,15,16,26,23.60
2013,07,15,16,27,23.60
2013,07,15,16,28,23.50
2013,07,15,16,29,23.50
2013,07,15,16,30,23.50
2013,07,15,16,31,23.50
2013,07,15,16,32,23.50
2013,07,15,16,33,23.60
2013,07,15,16,34,23.60
2013,07,15,16,35,23.70
2013,07,15,16,36,23.70
2013,07,15,16,37,23.80
2013,07,15,16,38,23.90
2013,07,15,16,39,23.90
2013,07,15,16,40,23.90
2013,07,15,16,41,23.90
2013,07,15,16,42,24.00
2013,07,15,16,43,24.00
2013,07,15,16,44,24.10
2013,07,15,16,45,24.10
2013,07,15,16,46,24.00
2013,07,15,16,47,23.90
2013,07,15,16,48,23.90
2013,07,15,16,49,23.90
2013,07,15,16,50,23.80
2013,07,15,16,51,23.70
2013,07,15,16,52,23.60
2013,07,15,16,53,23.60
2013,07,15,16,54,23.60
2013,07,15,16,55,23.60
2013,07,15,16,56,23.60
2013,07,15,16,57,23.70
2013,07,15,16,58,23.70
2013,07,15,16,59,23.70
2013,07,15,17,00,23.70
2013,07,15,17,01,23.80
2013,07,15,17,02,23.80
2013,07,15,17,03,23.80
2013,07,15,17,04,23.80
2013,07,15,17,05,23.80
2013,07,15,17,06,23.80
2013,07,15,17,07,23.70
2013,07,15,17,08,23.60
2013,07,15,17,09,23.60
2013,07,15,17,10,23.60
2013,07,15,17,11,23.50
2013,07,15,17,12,23.50
2013,07,15,17,13,23.50
2013,07,15,17,14,23.60
2013,07,15,17,15,23.70
2013,07,15,17,16,23.70
2013,07,15,17,17,23.70
2013,07,15,17,18,23.60
2013,07,15,17,19,23.50
2013,07,15,17,20,23.50
2013,07,15,17,21,23.50
2013,07,15,17,22,23.40
2013,07,15,17,23,23.30
2013,07,15,17,24,23.30
2013,07,15,17,25,23.30
2013,07,15,17,26,23.30
2013,07,15,17,27,23.30
2013,07,15,17,28,23.30
2013,07,15,17,29,23.30
2013,07,15,17,30,23.20
2013,07,15,17,31,23.10
2013,07,15,17,32,23.10
2013,07,15,17,33,22.90
2013,07,15,17,34,22.70
2013,07,15,17,35,22.40
2013,07,15,17,36,22.10
2013,07,15,17,37,21.90
2013,07,15,17,38,21.70